TimeMDT,TemperatureF,Dew PointF,Humidity,Sea Level PressureIn,VisibilityMPH,Wind Direction,Wind SpeedMPH,Gust SpeedMPH,PrecipitationIn,Events,Conditions,WindDirDegrees,DateUTC
12:53 AM,30.9,26.1,82,30.55,-9999.0,West,5.8,-,N/A,,Clear,270,2012-10-04 06:53:00
1:53 AM,33.1,27.0,78,30.53,-9999.0,WSW,5.8,-,N/A,,Mostly Cloudy,240,2012-10-04 07:53:00
2:53 AM,33.1,27.0,78,30.52,-9999.0,West,5.8,-,N/A,,Overcast,270,2012-10-04 08:53:00
3:53 AM,33.1,28.0,82,30.50,-9999.0,West,3.5,-,N/A,,Overcast,280,2012-10-04 09:53:00
4:38 AM,33.8,28.4,81,30.37,-9999.0,West,3.5,-,N/A,,Overcast,280,2012-10-04 10:38:00
4:53 AM,34.0,28.0,79,30.49,-9999.0,WNW,3.5,-,N/A,,Overcast,290,2012-10-04 10:53:00
5:53 AM,33.1,28.0,82,30.49,10.0,West,3.5,-,N/A,,Overcast,280,2012-10-04 11:53:00
6:24 AM,33.8,28.4,81,30.36,10.0,West,3.5,-,N/A,,Overcast,280,2012-10-04 12:24:00
6:53 AM,33.1,28.0,82,30.49,10.0,West,4.6,-,N/A,,Overcast,270,2012-10-04 12:53:00
7:53 AM,34.0,27.0,75,30.48,10.0,West,5.8,-,N/A,,Overcast,270,2012-10-04 13:53:00
8:53 AM,35.1,27.0,72,30.48,10.0,WNW,3.5,-,N/A,,Overcast,290,2012-10-04 14:53:00
9:53 AM,36.0,27.0,70,30.48,10.0,NW,4.6,-,N/A,,Overcast,310,2012-10-04 15:53:00
10:53 AM,37.9,28.0,68,30.48,10.0,Calm,Calm,-,N/A,,Overcast,0,2012-10-04 16:53:00
11:36 AM,37.4,26.6,65,30.34,10.0,North,4.6,-,N/A,,Overcast,10,2012-10-04 17:36:00
11:53 AM,39.9,27.0,60,30.45,10.0,North,3.5,-,N/A,,Overcast,350,2012-10-04 17:53:00
12:00 PM,39.2,26.6,61,30.34,10.0,North,3.5,-,N/A,,Overcast,360,2012-10-04 18:00:00
12:08 PM,39.2,26.6,61,30.33,10.0,Variable,3.5,-,N/A,,Overcast,0,2012-10-04 18:08:00
12:53 PM,41.0,27.0,57,30.45,10.0,NNW,5.8,-,N/A,,Overcast,340,2012-10-04 18:53:00
1:53 PM,41.0,27.0,57,30.43,10.0,NNW,8.1,-,N/A,,Overcast,340,2012-10-04 19:53:00
2:53 PM,41.0,26.1,55,30.42,10.0,NNW,8.1,-,N/A,,Overcast,330,2012-10-04 20:53:00
3:53 PM,42.1,26.1,53,30.42,10.0,NNW,11.5,-,N/A,,Overcast,330,2012-10-04 21:53:00
4:53 PM,41.0,27.0,57,30.43,10.0,NW,11.5,-,N/A,,Overcast,320,2012-10-04 22:53:00
5:53 PM,39.0,27.0,62,30.45,10.0,NNW,10.4,-,N/A,,Overcast,330,2012-10-04 23:53:00
6:53 PM,37.9,27.0,65,30.46,10.0,NNW,6.9,-,N/A,,Overcast,340,2012-10-05 00:53:00
7:53 PM,37.0,27.0,67,30.46,10.0,NNW,6.9,-,N/A,,Overcast,330,2012-10-05 01:53:00
8:53 PM,37.0,27.0,67,30.47,10.0,WNW,6.9,-,N/A,,Overcast,300,2012-10-05 02:53:00
9:53 PM,36.0,27.0,70,30.47,10.0,West,5.8,-,N/A,,Overcast,270,2012-10-05 03:53:00
10:53 PM,35.1,27.0,72,30.47,10.0,West,5.8,-,N/A,,Overcast,270,2012-10-05 04:53:00
11:53 PM,34.0,26.1,73,30.47,10.0,West,5.8,-,N/A,,Mostly Cloudy,260,2012-10-05 05:53:00